Weather reports worldwide

Advertisment
Leeming, United Kingdom (3257): temperature & dewpoint: 17.07.2019 09:00:00 - 23.07.2019 09:00:00 (BST)Leeming, United Kingdom (3257): temperature -20cm & temperature -100cm: 17.07.2019 09:00:00 - 23.07.2019 09:00:00 (BST)Leeming, United Kingdom (3257): wind speed & gusts: 17.07.2019 09:00:00 - 23.07.2019 09:00:00 (BST)Leeming, United Kingdom (3257): wind direction: 17.07.2019 09:00:00 - 23.07.2019 09:00:00 (BST)Leeming, United Kingdom (3257): reduced air pressure: 17.07.2019 09:00:00 - 23.07.2019 09:00:00 (BST)Leeming, United Kingdom (3257): visibility: 17.07.2019 09:00:00 - 23.07.2019 09:00:00 (BST)Leeming, United Kingdom (3257): sunshine duration: 17.07.2019 09:00:00 - 23.07.2019 09:00:00 (BST)Leeming, United Kingdom (3257): precipitation: 17.07.2019 09:00:00 - 23.07.2019 09:00:00 (BST)
Date & Time tt [°C] td [°C] tt -20cm [°C] tt -100cm [°C] ff [km/h] ff [kn] fx [km/h] fx [kn] dd ppp [hPa] vv [km] sd [min] rr [mm]
23.07.2019 09:00:00 20,0 15,0 - - 13 7 - - SSW - 10 - -
23.07.2019 08:00:00 19,1 15,1 - - 13 7 - - S 1018,9 30 0 0,0
23.07.2019 07:00:00 18,1 15,3 - - 15 8 - - SSE 1019,1 10 0 0,0
23.07.2019 06:00:00 16,9 14,7 - - 8 4 - - SE 1019,0 10 0 0,0
23.07.2019 05:00:00 18,0 14,8 - - 9 5 - - SE 1019,0 45 0 0,0
23.07.2019 04:00:00 18,3 14,0 - - 8 4 - - SSE 1019,4 45 0 0,0
23.07.2019 03:00:00 18,4 14,2 - - 15 8 - - SSW 1019,4 50 0 0,0
23.07.2019 02:00:00 18,4 14,0 - - 11 6 - - SSW 1019,2 10 0 0,0
23.07.2019 01:00:00 19,0 14,3 - - 29 16 - - SW 1019,0 50 - 0,0
23.07.2019 00:00:00 18,7 15,2 - - 16 9 - - SSW 1019,4 50 0 0,0
22.07.2019 23:00:00 18,2 15,3 - - 18 10 - - SW 1018,9 45 0 0,0
22.07.2019 22:00:00 18,5 15,0 - - 11 6 - - SSW 1018,9 40 0 0,0
22.07.2019 21:00:00 20,0 14,9 - - 22 12 - - SW 1018,4 50 48 0,0
22.07.2019 20:00:00 21,6 15,3 - - 28 15 - - SW 1018,1 50 18 0,0
22.07.2019 19:00:00 22,5 15,6 - - 31 17 - - SW 1017,8 10 30 0,0
22.07.2019 18:00:00 24,3 15,8 - - 29 16 48 26 SW 1017,6 28 54 0,0
22.07.2019 17:00:00 23,0 15,7 - - 26 14 52 28 SW 1017,3 10 24 0,0
22.07.2019 16:00:00 23,3 15,6 - - 42 23 57 31 SW 1016,7 10 54 0,0
22.07.2019 15:00:00 24,6 16,3 - - 35 19 59 32 SW 1016,9 35 36 0,0
22.07.2019 14:00:00 23,6 15,6 - - 44 24 63 34 SW 1016,7 10 36 0,0
22.07.2019 13:00:00 22,0 14,8 - - 44 24 61 33 SW 1016,7 10 6 0,0
22.07.2019 12:00:00 21,7 15,4 - - 34 18 54 29 WSW 1016,6 10 0 0,0
22.07.2019 11:00:00 20,5 15,7 - - 24 13 - - WSW 1016,8 10 0 0,0
22.07.2019 10:00:00 20,5 15,3 16,9 15,0 18 10 46 25 SW 1016,1 25 18 0,0
22.07.2019 09:00:00 21,0 15,5 - - 28 15 57 31 SW 1015,0 10 30 0,0
22.07.2019 08:00:00 20,2 16,2 - - 31 17 46 25 WSW 1014,0 10 0 0,0
22.07.2019 07:00:00 19,6 16,6 - - 31 17 - - SW 1013,4 10 0 0,0
22.07.2019 06:00:00 19,3 16,5 - - 29 16 46 25 SW 1013,0 35 0 0,0
22.07.2019 05:00:00 19,0 16,4 - - 21 11 - - SW 1012,9 45 0 0,0
22.07.2019 04:00:00 18,7 16,3 - - 21 11 - - SSW 1012,6 45 0 0,0
22.07.2019 03:00:00 17,8 15,7 - - 24 13 - - S 1012,5 45 0 0,0
22.07.2019 02:00:00 16,9 15,3 - - 28 15 - - S 1012,7 35 0 0,0
22.07.2019 01:00:00 16,6 14,8 - - 29 16 - - S 1013,4 24 - 0,4
22.07.2019 00:00:00 16,3 14,3 - - 22 12 - - SSE 1014,1 18 0 0,6
21.07.2019 23:00:00 18,0 13,6 - - 24 13 - - S 1014,4 10 0 0,0
21.07.2019 22:00:00 18,4 13,1 - - 18 10 - - SE 1015,1 10 0 0,0
21.07.2019 21:00:00 19,4 12,7 - - 21 11 - - SSE 1015,6 45 0 0,0
21.07.2019 20:00:00 19,4 12,7 - - 15 8 - - SSE 1016,2 45 0 0,0
21.07.2019 19:00:00 19,6 12,2 - - 16 9 - - S 1016,6 50 0 0,0
21.07.2019 18:00:00 19,6 12,7 - - 16 9 - - SSW 1016,7 10 0 0,0
21.07.2019 17:00:00 20,1 12,1 - - 21 11 - - SSW 1017,1 45 0 0,0
21.07.2019 16:00:00 21,0 11,6 - - 24 13 - - SSW 1017,1 50 0 0,0
21.07.2019 15:00:00 20,0 11,9 - - 22 12 - - SW 1017,4 50 6 0,0
21.07.2019 14:00:00 20,5 11,4 - - 28 15 - - SSW 1017,5 35 12 0,0
21.07.2019 13:00:00 21,3 13,7 - - 22 12 - - SSW 1017,3 10 6 0,0
21.07.2019 12:00:00 19,4 13,3 - - 15 8 - - SSE 1017,2 40 0 0,0
21.07.2019 11:00:00 18,8 12,5 - - 21 11 - - S 1017,1 10 12 0,0
21.07.2019 10:00:00 19,3 13,6 16,7 15,0 18 10 - - S 1016,9 10 12 0,0
21.07.2019 09:00:00 16,7 12,4 - - 16 9 - - S 1016,7 40 18 0,0
21.07.2019 08:00:00 13,7 12,1 - - 11 6 - - SSE 1016,3 30 0 0,0
21.07.2019 07:00:00 11,8 10,1 - - 8 4 - - ESE 1015,6 10 6 0,0
21.07.2019 06:00:00 11,0 10,0 - - 9 5 - - SSE 1015,4 30 0 0,0
21.07.2019 05:00:00 10,3 8,7 - - 9 5 - - SSE 1015,0 45 0 0,0
21.07.2019 04:00:00 11,1 8,2 - - 5 3 - - SE 1014,4 50 0 0,0
21.07.2019 03:00:00 10,7 7,8 - - 11 6 - - W 1014,0 50 0 0,0
21.07.2019 02:00:00 11,1 8,0 - - 8 4 - - S 1013,9 50 0 0,0
21.07.2019 01:00:00 10,0 6,5 - - 4 2 - - SW 1013,7 50 - 0,0
21.07.2019 00:00:00 13,4 8,9 - - 5 3 - - ESE 1012,9 50 0 0,0
20.07.2019 23:00:00 13,5 9,1 - - 16 9 - - W 1012,0 50 0 0,0
20.07.2019 22:00:00 14,3 8,7 - - 15 8 - - SW 1011,1 10 0 0,0
20.07.2019 21:00:00 16,8 8,6 - - 21 11 - - W 1010,1 50 54 0,0
20.07.2019 20:00:00 18,5 9,5 - - 21 11 - - W 1008,4 50 48 0,0
20.07.2019 19:00:00 19,3 11,0 - - 16 9 46 25 W 1007,7 45 48 0,0
20.07.2019 18:00:00 20,1 11,8 - - 29 16 46 25 W 1006,6 30 54 0,0
20.07.2019 17:00:00 19,5 12,7 - - 29 16 54 29 W 1005,2 50 36 0,0
20.07.2019 16:00:00 20,4 13,7 - - 34 18 46 25 W 1004,1 50 24 0,0
20.07.2019 15:00:00 19,8 15,2 - - 31 17 48 26 W 1003,0 10 30 0,2
20.07.2019 14:00:00 20,9 17,0 - - 26 14 - - WSW 1002,0 40 6 0,0
20.07.2019 13:00:00 19,9 14,3 - - 24 13 - - SW 1001,3 45 0 0,0
20.07.2019 12:00:00 19,1 14,8 - - 21 11 - - SW 1000,9 50 0 0,0
20.07.2019 11:00:00 18,6 14,0 - - 28 15 - - S 1000,7 40 0 0,0
20.07.2019 10:00:00 19,2 14,2 17,0 15,0 18 10 - - S 1000,2 35 6 0,0
20.07.2019 09:00:00 18,1 15,7 - - 18 10 - - SSE 1000,6 29 6 0,0
20.07.2019 08:00:00 16,1 15,1 - - 11 6 - - ESE 1000,7 11 0 0,0
20.07.2019 07:00:00 15,3 14,4 - - 9 5 - - SE 1000,9 9 0 0,0
20.07.2019 06:00:00 14,8 13,8 - - 8 4 - - ESE 1001,2 7 0 0,0
20.07.2019 05:00:00 14,7 13,7 - - 11 6 - - SE 1001,4 10 0 0,0
20.07.2019 04:00:00 15,2 14,0 - - 16 9 - - SE 1001,5 10 0 0,0
20.07.2019 03:00:00 15,6 14,5 - - 11 6 - - ESE 1002,0 9 0 0,0
20.07.2019 02:00:00 15,9 14,8 - - 15 8 - - SE 1002,4 10 0 0,0
20.07.2019 01:00:00 16,6 15,2 - - 11 6 - - E 1002,6 11 - 0,0
20.07.2019 00:00:00 17,0 15,7 - - 5 3 - - ESE 1002,9 13 0 0,0
19.07.2019 23:00:00 17,4 16,0 - - 9 5 - - ESE 1003,5 10 0 0,0
19.07.2019 22:00:00 17,7 15,8 - - 16 9 - - S 1003,4 21 0 0,0
19.07.2019 21:00:00 17,3 16,4 - - 16 9 - - SSE 1003,3 7 0 0,0
19.07.2019 20:00:00 17,2 16,4 - - 18 10 - - SSE 1003,5 9 0 0,2
19.07.2019 19:00:00 16,6 15,7 - - 21 11 - - SSE 1004,0 5 0 1,0
19.07.2019 18:00:00 16,9 15,0 - - 16 9 - - SE 1004,2 10 0 0,0
19.07.2019 17:00:00 16,3 14,3 - - 21 11 - - SSE 1005,1 9 0 0,0
19.07.2019 16:00:00 16,4 14,2 - - 22 12 - - SE 1005,8 45 0 0,2
19.07.2019 15:00:00 16,5 13,3 - - 22 12 - - SE 1006,5 10 0 0,0
19.07.2019 14:00:00 16,9 14,1 - - 24 13 - - SSE 1007,0 25 18 0,0
19.07.2019 13:00:00 15,7 14,2 - - 16 9 - - SE 1007,9 10 0 0,4
19.07.2019 12:00:00 16,0 13,3 - - 22 12 - - SSE 1008,2 10 0 0,0
19.07.2019 11:00:00 15,9 13,4 - - 11 6 - - SE 1008,8 10 0 0,0
19.07.2019 10:00:00 14,8 12,4 17,0 14,9 16 9 - - SSE 1008,9 10 0 0,0
19.07.2019 09:00:00 14,9 11,9 - - 18 10 - - SE 1009,2 10 0 0,0
19.07.2019 08:00:00 14,4 11,8 - - 13 7 - - SSE 1009,4 10 0 0,0
19.07.2019 07:00:00 13,6 11,2 - - 15 8 - - SE 1009,2 10 0 0,0
19.07.2019 06:00:00 12,4 10,3 - - 13 7 - - SSE 1009,1 10 0 0,0
19.07.2019 05:00:00 12,9 10,4 - - 9 5 - - SE 1009,3 35 0 0,0
19.07.2019 04:00:00 13,7 11,1 - - 8 4 - - SSE 1009,5 35 0 0,0
19.07.2019 03:00:00 13,8 11,3 - - 8 4 - - ESE 1009,7 40 0 0,0
19.07.2019 02:00:00 14,6 11,3 - - 11 6 - - SSE 1009,7 45 0 0,0
19.07.2019 01:00:00 14,4 11,1 - - 9 5 - - SSW 1009,9 50 - 0,0
19.07.2019 00:00:00 14,1 10,5 - - 8 4 - - S 1009,8 10 0 0,0
18.07.2019 23:00:00 15,0 10,1 - - 8 4 - - SE 1009,8 10 0 0,0
18.07.2019 22:00:00 15,4 10,0 - - 13 7 - - SW 1009,6 10 0 0,0
18.07.2019 21:00:00 17,1 9,8 - - 9 5 - - WSW 1009,3 45 18 0,0
18.07.2019 20:00:00 18,1 8,8 - - 21 11 - - WSW 1008,6 40 60 0,0
18.07.2019 19:00:00 19,0 8,9 - - 21 11 - - W 1008,3 10 60 0,0
18.07.2019 18:00:00 19,7 9,6 - - 28 15 - - W 1007,8 30 54 0,0
18.07.2019 17:00:00 20,6 9,9 - - 29 16 - - WSW 1007,5 10 18 0,0
18.07.2019 16:00:00 20,6 11,0 - - 24 13 - - W 1007,3 10 36 0,0
18.07.2019 15:00:00 18,8 10,4 - - 18 10 46 25 WSW 1007,5 10 0 0,0
18.07.2019 14:00:00 18,4 10,9 - - 21 11 - - W 1007,6 10 0 0,0
18.07.2019 13:00:00 17,9 10,7 - - 24 13 - - WSW 1007,4 10 6 0,0
18.07.2019 12:00:00 17,9 10,3 - - 26 14 - - WSW 1007,0 10 6 0,0
18.07.2019 11:00:00 18,9 11,1 - - 18 10 - - W 1006,9 10 42 0,0
18.07.2019 10:00:00 18,0 10,5 17,2 14,7 22 12 - - W 1006,8 10 54 0,0
18.07.2019 09:00:00 16,6 10,9 - - 13 7 - - SW 1006,9 10 36 0,0
18.07.2019 08:00:00 15,1 10,8 - - 8 4 - - WSW 1006,9 10 36 0,0
18.07.2019 07:00:00 13,7 10,8 - - 16 9 - - W 1006,6 10 0 0,0
18.07.2019 06:00:00 14,9 11,8 - - 13 7 - - W 1005,8 50 0 0,0
18.07.2019 05:00:00 16,1 13,9 - - 13 7 - - S 1005,6 45 0 0,0
18.07.2019 04:00:00 15,4 13,7 - - 16 9 - - SSE 1005,4 18 0 0,0
18.07.2019 03:00:00 15,6 13,5 - - 18 10 - - SSE 1006,0 21 0 0,0
18.07.2019 02:00:00 15,1 13,4 - - 16 9 - - SE 1006,7 14 0 0,0
18.07.2019 01:00:00 14,9 13,5 - - 9 5 - - ESE 1007,0 13 - 0,0
18.07.2019 00:00:00 15,3 13,5 - - 9 5 - - SSE 1007,5 16 0 0,0
17.07.2019 23:00:00 15,3 13,5 - - 11 6 - - SE 1008,3 13 0 0,0
17.07.2019 22:00:00 15,8 13,3 - - 11 6 - - S 1008,9 30 0 0,0
17.07.2019 21:00:00 15,8 13,8 - - 15 8 - - S 1009,0 28 0 0,4
17.07.2019 20:00:00 16,3 13,8 - - 16 9 - - S 1009,3 17 0 1,2
17.07.2019 19:00:00 17,1 12,8 - - 22 12 - - SW 1009,8 16 0 0,0
17.07.2019 18:00:00 19,7 10,9 - - 24 13 - - SW 1009,7 35 0 0,0
17.07.2019 17:00:00 21,4 11,3 - - 18 10 - - SW 1009,8 10 6 0,0
17.07.2019 16:00:00 22,6 11,6 - - 21 11 - - SW 1010,4 10 6 0,0
17.07.2019 15:00:00 22,3 12,5 - - 26 14 - - SW 1010,8 10 18 0,0
17.07.2019 14:00:00 22,3 12,2 - - 24 13 - - SSW 1011,2 10 6 0,0
17.07.2019 13:00:00 22,2 10,9 - - 29 16 - - SSW 1011,7 10 18 0,0
17.07.2019 12:00:00 22,2 13,3 - - 21 11 - - S 1011,9 30 18 0,0
17.07.2019 11:00:00 21,4 13,4 - - 15 8 - - S 1012,5 10 6 0,0
17.07.2019 10:00:00 19,4 13,4 17,0 14,7 13 7 - - SE 1013,2 10 24 0,0
17.07.2019 09:00:00 16,4 12,2 - - 11 6 - - SSE 1013,8 10 24 0,0

tt = temperature
td = dewpoint
tt -20cm = temperature -20cm
tt -100cm = temperature -100cm
ff = wind speed
fx = gusts
dd = wind direction
ppp = reduced air pressure
vv = visibility
sd = sunshine duration
rr = precipitation

Next stations